Year,Month,Day,Hour,Minute,Value (Times are PST for temperature in C)
2009,06,27,00,00,8.30
2009,06,27,00,01,8.30
2009,06,27,00,02,8.30
2009,06,27,00,03,8.20
2009,06,27,00,04,8.20
2009,06,27,00,05,8.20
2009,06,27,00,06,8.20
2009,06,27,00,07,8.20
2009,06,27,00,08,8.20
2009,06,27,00,09,8.20
2009,06,27,00,10,8.20
2009,06,27,00,11,8.20
2009,06,27,00,12,8.20
2009,06,27,00,13,8.20
2009,06,27,00,14,8.20
2009,06,27,00,15,8.20
2009,06,27,00,16,8.20
2009,06,27,00,17,8.10
2009,06,27,00,18,8.10
2009,06,27,00,19,8.10
2009,06,27,00,20,8.10
2009,06,27,00,21,8.10
2009,06,27,00,22,8.10
2009,06,27,00,23,8.10
2009,06,27,00,24,8.10
2009,06,27,00,25,8.10
2009,06,27,00,26,8.00
2009,06,27,00,27,8.10
2009,06,27,00,28,8.00
2009,06,27,00,29,8.10
2009,06,27,00,30,8.00
2009,06,27,00,31,8.00
2009,06,27,00,32,8.00
2009,06,27,00,33,8.00
2009,06,27,00,34,8.00
2009,06,27,00,35,7.90
2009,06,27,00,36,7.90
2009,06,27,00,37,7.90
2009,06,27,00,38,7.90
2009,06,27,00,39,7.90
2009,06,27,00,40,7.90
2009,06,27,00,41,7.80
2009,06,27,00,42,7.80
2009,06,27,00,43,7.80
2009,06,27,00,44,7.80
2009,06,27,00,45,7.80
2009,06,27,00,46,7.80
2009,06,27,00,47,7.80
2009,06,27,00,48,7.80
2009,06,27,00,49,7.80
2009,06,27,00,50,7.80
2009,06,27,00,51,7.80
2009,06,27,00,52,7.80
2009,06,27,00,53,7.80
2009,06,27,00,54,7.80
2009,06,27,00,55,7.80
2009,06,27,00,56,7.80
2009,06,27,00,57,7.80
2009,06,27,00,58,7.70
2009,06,27,00,59,7.70
2009,06,27,01,00,7.70
2009,06,27,01,01,7.70
2009,06,27,01,02,7.70
2009,06,27,01,03,7.70
2009,06,27,01,04,7.70
2009,06,27,01,05,7.60
2009,06,27,01,06,7.60
2009,06,27,01,07,7.60
2009,06,27,01,08,7.60
2009,06,27,01,09,7.60
2009,06,27,01,10,7.60
2009,06,27,01,11,7.50
2009,06,27,01,12,7.50
2009,06,27,01,13,7.50
2009,06,27,01,14,7.50
2009,06,27,01,15,7.50
2009,06,27,01,16,7.40
2009,06,27,01,17,7.40
2009,06,27,01,18,7.40
2009,06,27,01,19,7.40
2009,06,27,01,20,7.40
2009,06,27,01,21,7.40
2009,06,27,01,22,7.40
2009,06,27,01,23,7.40
2009,06,27,01,24,7.40
2009,06,27,01,25,7.40
2009,06,27,01,26,7.40
2009,06,27,01,27,7.40
2009,06,27,01,28,7.40
2009,06,27,01,29,7.40
2009,06,27,01,30,7.40
2009,06,27,01,31,7.50
2009,06,27,01,32,7.50
2009,06,27,01,33,7.50
2009,06,27,01,34,7.50
2009,06,27,01,35,7.50
2009,06,27,01,36,7.50
2009,06,27,01,37,7.50
2009,06,27,01,38,7.50
2009,06,27,01,39,7.60
2009,06,27,01,40,7.60
2009,06,27,01,41,7.60
2009,06,27,01,42,7.60
2009,06,27,01,43,7.60
2009,06,27,01,44,7.60
2009,06,27,01,45,7.60
2009,06,27,01,46,7.60
2009,06,27,01,47,7.60
2009,06,27,01,48,7.60
2009,06,27,01,49,7.60
2009,06,27,01,50,7.60
2009,06,27,01,51,7.60
2009,06,27,01,52,7.70
2009,06,27,01,53,7.70
2009,06,27,01,54,7.70
2009,06,27,01,55,7.70
2009,06,27,01,56,7.70
2009,06,27,01,57,7.70
2009,06,27,01,58,7.70
2009,06,27,01,59,7.70
2009,06,27,02,00,7.70
2009,06,27,02,01,7.70
2009,06,27,02,02,7.70
2009,06,27,02,03,7.70
2009,06,27,02,04,7.70
2009,06,27,02,05,7.70
2009,06,27,02,06,7.70
2009,06,27,02,07,7.70
2009,06,27,02,08,7.70
2009,06,27,02,09,7.60
2009,06,27,02,10,7.60
2009,06,27,02,11,7.60
2009,06,27,02,12,7.60
2009,06,27,02,13,7.60
2009,06,27,02,14,7.60
2009,06,27,02,15,7.60
2009,06,27,02,16,7.50
2009,06,27,02,17,7.50
2009,06,27,02,18,7.50
2009,06,27,02,19,7.50
2009,06,27,02,20,7.50
2009,06,27,02,21,7.50
2009,06,27,02,22,7.50
2009,06,27,02,23,7.50
2009,06,27,02,24,7.50
2009,06,27,02,25,7.50
2009,06,27,02,26,7.40
2009,06,27,02,27,7.40
2009,06,27,02,28,7.40
2009,06,27,02,29,7.40
2009,06,27,02,30,7.40
2009,06,27,02,31,7.40
2009,06,27,02,32,7.50
2009,06,27,02,33,7.50
2009,06,27,02,34,7.50
2009,06,27,02,35,7.50
2009,06,27,02,36,7.50
2009,06,27,02,37,7.40
2009,06,27,02,38,7.40
2009,06,27,02,39,7.40
2009,06,27,02,40,7.40
2009,06,27,02,41,7.40
2009,06,27,02,42,7.40
2009,06,27,02,43,7.40
2009,06,27,02,44,7.40
2009,06,27,02,45,7.40
2009,06,27,02,46,7.40
2009,06,27,02,47,7.30
2009,06,27,02,48,7.30
2009,06,27,02,49,7.30
2009,06,27,02,50,7.30
2009,06,27,02,51,7.30
2009,06,27,02,52,7.20
2009,06,27,02,53,7.20
2009,06,27,02,54,7.20
2009,06,27,02,55,7.20
2009,06,27,02,56,7.20
2009,06,27,02,57,7.20
2009,06,27,02,58,7.20
2009,06,27,02,59,7.20
2009,06,27,03,00,7.20
2009,06,27,03,01,7.20
2009,06,27,03,02,7.20
2009,06,27,03,03,7.10
2009,06,27,03,04,7.10
2009,06,27,03,05,7.10
2009,06,27,03,06,7.10
2009,06,27,03,07,7.10
2009,06,27,03,08,7.10
2009,06,27,03,09,7.10
2009,06,27,03,10,7.10
2009,06,27,03,11,7.00
2009,06,27,03,12,7.00
2009,06,27,03,13,7.00
2009,06,27,03,14,7.00
2009,06,27,03,15,6.90
2009,06,27,03,16,6.90
2009,06,27,03,17,6.90
2009,06,27,03,18,6.90
2009,06,27,03,19,6.90
2009,06,27,03,20,6.90
2009,06,27,03,21,6.90
2009,06,27,03,22,6.90
2009,06,27,03,23,6.90
2009,06,27,03,24,6.90
2009,06,27,03,25,6.90
2009,06,27,03,26,6.90
2009,06,27,03,27,6.90
2009,06,27,03,28,6.90
2009,06,27,03,29,6.90
2009,06,27,03,30,6.90
2009,06,27,03,31,6.90
2009,06,27,03,32,6.90
2009,06,27,03,33,6.90
2009,06,27,03,34,6.90
2009,06,27,03,35,6.80
2009,06,27,03,36,6.80
2009,06,27,03,37,6.80
2009,06,27,03,38,6.80
2009,06,27,03,39,6.80
2009,06,27,03,40,6.80
2009,06,27,03,41,6.80
2009,06,27,03,42,6.70
2009,06,27,03,43,6.70
2009,06,27,03,44,6.70
2009,06,27,03,45,6.70
2009,06,27,03,46,6.70
2009,06,27,03,47,6.70
2009,06,27,03,48,6.60
2009,06,27,03,49,6.60
2009,06,27,03,50,6.60
2009,06,27,03,51,6.60
2009,06,27,03,52,6.60
2009,06,27,03,53,6.60
2009,06,27,03,54,6.60
2009,06,27,03,55,6.60
2009,06,27,03,56,6.50
2009,06,27,03,57,6.50
2009,06,27,03,58,6.50
2009,06,27,03,59,6.50
2009,06,27,04,00,6.50
2009,06,27,04,01,6.50
2009,06,27,04,02,6.50
2009,06,27,04,03,6.40
2009,06,27,04,16,6.30
2009,06,27,04,27,6.30
2009,06,27,04,38,6.10
2009,06,27,04,47,6.00
2009,06,27,05,00,5.90
2009,06,27,05,01,5.80
2009,06,27,05,02,5.80
2009,06,27,05,03,5.80
2009,06,27,05,04,5.80
2009,06,27,05,05,5.80
2009,06,27,05,06,5.80
2009,06,27,05,07,5.80
2009,06,27,05,08,5.80
2009,06,27,05,09,5.80
2009,06,27,05,10,5.80
2009,06,27,05,11,5.70
2009,06,27,05,12,5.70
2009,06,27,05,13,5.70
2009,06,27,05,14,5.70
2009,06,27,05,15,5.70
2009,06,27,05,16,5.70
2009,06,27,05,17,5.70
2009,06,27,05,18,5.70
2009,06,27,05,19,5.70
2009,06,27,05,20,5.70
2009,06,27,05,21,5.60
2009,06,27,05,22,5.60
2009,06,27,05,23,5.60
2009,06,27,05,24,5.60
2009,06,27,05,25,5.70
2009,06,27,05,26,5.70
2009,06,27,05,27,5.70
2009,06,27,05,28,5.70
2009,06,27,05,29,5.60
2009,06,27,05,30,5.60
2009,06,27,05,31,5.60
2009,06,27,05,32,5.60
2009,06,27,05,33,5.60
2009,06,27,05,34,5.60
2009,06,27,05,35,5.60
2009,06,27,05,36,5.60
2009,06,27,05,37,5.60
2009,06,27,05,38,5.60
2009,06,27,05,39,5.60
2009,06,27,05,40,5.60
2009,06,27,05,41,5.50
2009,06,27,05,42,5.50
2009,06,27,05,43,5.50
2009,06,27,05,44,5.50
2009,06,27,05,45,5.50
2009,06,27,05,46,5.50
2009,06,27,05,47,5.50
2009,06,27,05,48,5.50
2009,06,27,05,49,5.50
2009,06,27,05,50,5.50
2009,06,27,05,51,5.50
2009,06,27,05,52,5.50
2009,06,27,05,53,5.50
2009,06,27,05,54,5.50
2009,06,27,05,55,5.50
2009,06,27,05,56,5.50
2009,06,27,05,57,5.50
2009,06,27,05,58,5.50
2009,06,27,05,59,5.50
2009,06,27,06,00,5.50
2009,06,27,06,01,5.50
2009,06,27,06,02,5.60
2009,06,27,06,03,5.50
2009,06,27,06,04,5.60
2009,06,27,06,05,5.60
2009,06,27,06,06,5.60
2009,06,27,06,07,5.60
2009,06,27,06,08,5.60
2009,06,27,06,09,5.60
2009,06,27,06,10,5.60
2009,06,27,06,11,5.60
2009,06,27,06,12,5.60
2009,06,27,06,13,5.60
2009,06,27,06,14,5.70
2009,06,27,06,15,5.70
2009,06,27,06,16,5.70
2009,06,27,06,17,5.70
2009,06,27,06,18,5.70
2009,06,27,06,19,5.70
2009,06,27,06,20,5.70
2009,06,27,06,21,5.70
2009,06,27,06,22,5.70
2009,06,27,06,23,5.80
2009,06,27,06,24,5.80
2009,06,27,06,25,5.80
2009,06,27,06,26,5.80
2009,06,27,06,27,5.80
2009,06,27,06,28,5.80
2009,06,27,06,29,5.80
2009,06,27,06,30,5.90
2009,06,27,06,31,5.90
2009,06,27,06,32,5.90
2009,06,27,06,33,5.90
2009,06,27,06,34,5.90
2009,06,27,06,35,5.90
2009,06,27,06,36,5.90
2009,06,27,06,37,5.90
2009,06,27,06,38,6.00
2009,06,27,06,39,6.00
2009,06,27,06,40,6.00
2009,06,27,06,41,6.10
2009,06,27,06,42,6.10
2009,06,27,06,43,6.10
2009,06,27,06,44,6.20
2009,06,27,06,45,6.20
2009,06,27,06,46,6.20
2009,06,27,06,47,6.20
2009,06,27,06,48,6.30
2009,06,27,06,49,6.30
2009,06,27,06,50,6.30
2009,06,27,06,51,6.30
2009,06,27,06,52,6.40
2009,06,27,06,53,6.40
2009,06,27,06,54,6.40
2009,06,27,06,55,6.40
2009,06,27,06,56,6.50
2009,06,27,06,57,6.50
2009,06,27,06,58,6.60
2009,06,27,06,59,6.60
2009,06,27,07,00,6.70
2009,06,27,07,01,6.70
2009,06,27,07,02,6.70
2009,06,27,07,03,6.70
2009,06,27,07,04,6.80
2009,06,27,07,05,6.80
2009,06,27,07,06,6.90
2009,06,27,07,07,6.90
2009,06,27,07,08,6.90
2009,06,27,07,09,7.00
2009,06,27,07,10,7.00
2009,06,27,07,11,7.10
2009,06,27,07,12,7.10
2009,06,27,07,13,7.20
2009,06,27,07,14,7.20
2009,06,27,07,15,7.20
2009,06,27,07,16,7.30
2009,06,27,07,17,7.30
2009,06,27,07,18,7.40
2009,06,27,07,19,7.50
2009,06,27,07,20,7.50
2009,06,27,07,21,7.60
2009,06,27,07,22,7.70
2009,06,27,07,23,7.70
2009,06,27,07,24,7.80
2009,06,27,07,25,7.90
2009,06,27,07,26,8.00
2009,06,27,07,27,8.10
2009,06,27,07,28,8.20
2009,06,27,07,29,8.30
2009,06,27,07,30,8.40
2009,06,27,07,31,8.60
2009,06,27,07,32,8.70
2009,06,27,07,33,8.90
2009,06,27,07,34,9.00
2009,06,27,07,35,9.20
2009,06,27,07,36,9.40
2009,06,27,07,37,9.60
2009,06,27,07,38,9.80
2009,06,27,07,39,10.00
2009,06,27,07,40,10.20
2009,06,27,07,41,10.40
2009,06,27,07,42,10.60
2009,06,27,07,43,10.80
2009,06,27,07,44,10.90
2009,06,27,07,45,11.10
2009,06,27,07,46,11.30
2009,06,27,07,47,11.40
2009,06,27,07,48,11.60
2009,06,27,07,49,11.70
2009,06,27,07,50,11.90
2009,06,27,07,51,12.00
2009,06,27,07,52,12.20
2009,06,27,07,53,12.30
2009,06,27,07,54,12.40
2009,06,27,07,55,12.50
2009,06,27,07,56,12.60
2009,06,27,07,57,12.70
2009,06,27,07,58,12.80
2009,06,27,07,59,12.80
2009,06,27,08,00,12.90
2009,06,27,08,01,13.00
2009,06,27,08,02,13.10
2009,06,27,08,03,13.20
2009,06,27,08,04,13.30
2009,06,27,08,05,13.40
2009,06,27,08,06,13.50
2009,06,27,08,07,13.60
2009,06,27,08,08,13.60
2009,06,27,08,09,13.70
2009,06,27,08,10,13.80
2009,06,27,08,11,13.90
2009,06,27,08,12,14.00
2009,06,27,08,13,14.00
2009,06,27,08,14,14.10
2009,06,27,08,15,14.10
2009,06,27,08,16,14.20
2009,06,27,08,17,14.20
2009,06,27,08,18,14.20
2009,06,27,08,19,14.30
2009,06,27,08,20,14.40
2009,06,27,08,21,14.50
2009,06,27,08,22,14.60
2009,06,27,08,23,14.60
2009,06,27,08,24,14.70
2009,06,27,08,25,14.80
2009,06,27,08,26,14.80
2009,06,27,08,27,14.90
2009,06,27,08,28,15.00
2009,06,27,08,29,15.00
2009,06,27,08,30,15.00
2009,06,27,08,31,15.00
2009,06,27,08,32,15.00
2009,06,27,08,33,15.10
2009,06,27,08,34,15.20
2009,06,27,08,35,15.20
2009,06,27,08,36,15.30
2009,06,27,08,37,15.30
2009,06,27,08,38,15.20
2009,06,27,08,39,15.20
2009,06,27,08,40,15.20
2009,06,27,08,41,15.20
2009,06,27,08,42,15.20
2009,06,27,08,43,15.20
2009,06,27,08,44,15.30
2009,06,27,08,45,15.40
2009,06,27,08,46,15.40
2009,06,27,08,47,15.50
2009,06,27,08,48,15.50
2009,06,27,08,49,15.60
2009,06,27,08,50,15.60
2009,06,27,08,51,15.60
2009,06,27,08,52,15.70
2009,06,27,08,53,15.80
2009,06,27,08,54,15.80
2009,06,27,08,55,15.70
2009,06,27,08,56,15.80
2009,06,27,08,57,15.80
2009,06,27,08,58,15.90
2009,06,27,08,59,15.90
2009,06,27,09,00,16.00
2009,06,27,09,01,16.00
2009,06,27,09,02,16.00
2009,06,27,09,03,16.00
2009,06,27,09,04,16.00
2009,06,27,09,05,16.00
2009,06,27,09,06,16.00
2009,06,27,09,07,16.10
2009,06,27,09,08,16.10
2009,06,27,09,09,16.10
2009,06,27,09,10,16.10
2009,06,27,09,11,16.10
2009,06,27,09,12,16.20
2009,06,27,09,13,16.30
2009,06,27,09,14,16.40
2009,06,27,09,15,16.40
2009,06,27,09,16,16.50
2009,06,27,09,17,16.50
2009,06,27,09,18,16.40
2009,06,27,09,19,16.40
2009,06,27,09,20,16.30
2009,06,27,09,21,16.30
2009,06,27,09,22,16.30
2009,06,27,09,23,16.30
2009,06,27,09,24,16.30
2009,06,27,09,25,16.30
2009,06,27,09,26,16.40
2009,06,27,09,27,16.30
2009,06,27,09,28,16.30
2009,06,27,09,29,16.20
2009,06,27,09,30,16.10
2009,06,27,09,31,16.10
2009,06,27,09,32,16.10
2009,06,27,09,33,16.20
2009,06,27,09,34,16.30
2009,06,27,09,35,16.40
2009,06,27,09,36,16.40
2009,06,27,09,37,16.50
2009,06,27,09,38,16.60
2009,06,27,09,39,16.70
2009,06,27,09,40,16.70
2009,06,27,09,41,16.70
2009,06,27,09,42,16.70
2009,06,27,09,43,16.70
2009,06,27,09,44,16.70
2009,06,27,09,45,16.70
2009,06,27,09,46,16.70
2009,06,27,09,47,16.80
2009,06,27,09,48,16.80
2009,06,27,09,49,16.90
2009,06,27,09,50,16.90
2009,06,27,09,51,16.90
2009,06,27,09,52,17.00
2009,06,27,09,53,17.10
2009,06,27,09,54,17.10
2009,06,27,09,55,17.20
2009,06,27,09,56,17.20
2009,06,27,09,57,17.30
2009,06,27,09,58,17.30
2009,06,27,09,59,17.30
2009,06,27,10,00,17.30
2009,06,27,10,01,17.30
2009,06,27,10,02,17.30
2009,06,27,10,03,17.30
2009,06,27,10,04,17.30
2009,06,27,10,05,17.30
2009,06,27,10,06,17.30
2009,06,27,10,07,17.40
2009,06,27,10,08,17.40
2009,06,27,10,09,17.50
2009,06,27,10,10,17.50
2009,06,27,10,11,17.60
2009,06,27,10,12,17.70
2009,06,27,10,13,17.70
2009,06,27,10,14,17.70
2009,06,27,10,15,17.80
2009,06,27,10,16,17.80
2009,06,27,10,17,17.80
2009,06,27,10,18,17.90
2009,06,27,10,19,17.90
2009,06,27,10,20,18.00
2009,06,27,10,21,18.00
2009,06,27,10,22,18.00
2009,06,27,10,23,17.90
2009,06,27,10,24,17.90
2009,06,27,10,25,17.90
2009,06,27,10,26,18.00
2009,06,27,10,27,18.10
2009,06,27,10,28,18.00
2009,06,27,10,29,18.00
2009,06,27,10,30,18.00
2009,06,27,10,31,17.90
2009,06,27,10,32,17.90
2009,06,27,10,33,17.90
2009,06,27,10,34,17.90
2009,06,27,10,35,17.90
2009,06,27,10,36,17.90
2009,06,27,10,37,17.90
2009,06,27,10,38,18.00
2009,06,27,10,39,18.00
2009,06,27,10,40,18.10
2009,06,27,10,41,18.00
2009,06,27,10,42,18.00
2009,06,27,10,43,17.90
2009,06,27,10,44,17.90
2009,06,27,10,45,17.90
2009,06,27,10,46,17.90
2009,06,27,10,47,18.00
2009,06,27,10,48,18.00
2009,06,27,10,49,17.90
2009,06,27,10,50,17.80
2009,06,27,10,51,17.80
2009,06,27,10,52,17.80
2009,06,27,10,53,17.70
2009,06,27,10,54,17.70
2009,06,27,10,55,17.70
2009,06,27,10,56,17.70
2009,06,27,10,57,17.80
2009,06,27,10,58,18.10
2009,06,27,10,59,18.10
2009,06,27,11,00,18.20
2009,06,27,11,01,18.30
2009,06,27,11,02,18.50
2009,06,27,11,03,18.50
2009,06,27,11,04,18.40
2009,06,27,11,05,18.30
2009,06,27,11,06,18.30
2009,06,27,11,07,18.20
2009,06,27,11,08,18.30
2009,06,27,11,09,18.40
2009,06,27,11,10,18.50
2009,06,27,11,11,18.60
2009,06,27,11,12,18.50
2009,06,27,11,13,18.40
2009,06,27,11,14,18.30
2009,06,27,11,15,18.40
2009,06,27,11,16,18.50
2009,06,27,11,17,18.50
2009,06,27,11,18,18.60
2009,06,27,11,19,18.70
2009,06,27,11,20,18.90
2009,06,27,11,21,18.90
2009,06,27,11,22,18.90
2009,06,27,11,23,19.00
2009,06,27,11,24,19.10
2009,06,27,11,25,19.10
2009,06,27,11,26,19.10
2009,06,27,11,27,18.90
2009,06,27,11,28,18.80
2009,06,27,11,29,18.80
2009,06,27,11,30,18.80
2009,06,27,11,31,18.80
2009,06,27,11,32,18.90
2009,06,27,11,33,18.90
2009,06,27,11,34,19.00
2009,06,27,11,35,18.90
2009,06,27,11,36,18.90
2009,06,27,11,37,18.90
2009,06,27,11,38,18.80
2009,06,27,11,39,18.80
2009,06,27,11,40,18.80
2009,06,27,11,41,18.70
2009,06,27,11,42,18.70
2009,06,27,11,43,18.60
2009,06,27,11,44,18.60
2009,06,27,11,45,18.60
2009,06,27,11,46,18.50
2009,06,27,11,47,18.50
2009,06,27,11,48,18.50
2009,06,27,11,49,18.50
2009,06,27,11,50,18.50
2009,06,27,11,51,18.60
2009,06,27,11,52,18.60
2009,06,27,11,53,18.70
2009,06,27,11,54,18.80
2009,06,27,11,55,18.80
2009,06,27,11,56,18.90
2009,06,27,11,57,18.90
2009,06,27,11,58,19.00
2009,06,27,11,59,19.00
2009,06,27,12,00,19.00
2009,06,27,12,01,19.00
2009,06,27,12,02,19.10
2009,06,27,12,03,19.10
2009,06,27,12,04,19.20
2009,06,27,12,05,19.20
2009,06,27,12,06,19.30
2009,06,27,12,07,19.40
2009,06,27,12,08,19.40
2009,06,27,12,09,19.50
2009,06,27,12,10,19.60
2009,06,27,12,11,19.70
2009,06,27,12,12,19.70
2009,06,27,12,13,19.70
2009,06,27,12,14,19.60
2009,06,27,12,15,19.60
2009,06,27,12,16,19.70
2009,06,27,12,17,19.80
2009,06,27,12,18,20.00
2009,06,27,12,19,20.10
2009,06,27,12,20,20.20
2009,06,27,12,21,20.40
2009,06,27,12,22,20.40
2009,06,27,12,23,20.50
2009,06,27,12,24,20.50
2009,06,27,12,25,20.50
2009,06,27,12,26,20.50
2009,06,27,12,27,20.60
2009,06,27,12,28,20.60
2009,06,27,12,29,20.60
2009,06,27,12,30,20.70
2009,06,27,12,31,20.70
2009,06,27,12,32,20.60
2009,06,27,12,33,20.70
2009,06,27,12,34,20.70
2009,06,27,12,35,20.60
2009,06,27,12,36,20.60
2009,06,27,12,37,20.60
2009,06,27,12,38,20.70
2009,06,27,12,39,20.80
2009,06,27,12,40,20.80
2009,06,27,12,41,20.80
2009,06,27,12,42,20.70
2009,06,27,12,43,20.70
2009,06,27,12,44,20.80
2009,06,27,12,45,20.80
2009,06,27,12,46,20.80
2009,06,27,12,47,20.90
2009,06,27,12,48,20.90
2009,06,27,12,49,20.90
2009,06,27,12,50,20.90
2009,06,27,12,51,20.80
2009,06,27,12,52,20.80
2009,06,27,12,53,20.80
2009,06,27,12,54,20.80
2009,06,27,12,55,20.80
2009,06,27,12,56,20.80
2009,06,27,12,57,20.90
2009,06,27,12,58,21.00
2009,06,27,12,59,21.10
2009,06,27,13,00,21.30
2009,06,27,13,01,21.40
2009,06,27,13,02,21.40
2009,06,27,13,03,21.40
2009,06,27,13,04,21.50
2009,06,27,13,05,21.60
2009,06,27,13,06,21.70
2009,06,27,13,07,21.80
2009,06,27,13,08,22.00
2009,06,27,13,09,22.10
2009,06,27,13,10,22.30
2009,06,27,13,11,22.40
2009,06,27,13,12,22.60
2009,06,27,13,13,22.70
2009,06,27,13,14,22.80
2009,06,27,13,15,22.70
2009,06,27,13,16,22.50
2009,06,27,13,17,22.40
2009,06,27,13,18,22.30
2009,06,27,13,19,22.30
2009,06,27,13,20,22.30
2009,06,27,13,21,22.30
2009,06,27,13,22,22.20
2009,06,27,13,23,22.20
2009,06,27,13,24,22.20
2009,06,27,13,25,22.30
2009,06,27,13,26,22.30
2009,06,27,13,27,22.30
2009,06,27,13,28,22.30
2009,06,27,13,29,22.30
2009,06,27,13,30,22.30
2009,06,27,13,31,22.30
2009,06,27,13,32,22.20
2009,06,27,13,33,22.10
2009,06,27,13,34,22.10
2009,06,27,13,35,22.10
2009,06,27,13,36,22.10
2009,06,27,13,37,22.20
2009,06,27,13,38,22.40
2009,06,27,13,39,22.50
2009,06,27,13,40,22.50
2009,06,27,13,41,22.70
2009,06,27,13,42,22.70
2009,06,27,13,43,22.80
2009,06,27,13,44,22.90
2009,06,27,13,45,22.80
2009,06,27,13,46,22.70
2009,06,27,13,47,22.50
2009,06,27,13,48,22.40
2009,06,27,13,49,22.30
2009,06,27,13,50,22.20
2009,06,27,13,51,22.20
2009,06,27,13,52,22.20
2009,06,27,13,53,22.20
2009,06,27,13,54,22.30
2009,06,27,13,55,22.20
2009,06,27,13,56,22.10
2009,06,27,13,57,22.10
2009,06,27,13,58,22.10
2009,06,27,13,59,22.30
2009,06,27,14,00,22.30
2009,06,27,14,01,22.20
2009,06,27,14,02,22.10
2009,06,27,14,03,22.10
2009,06,27,14,04,22.20
2009,06,27,14,05,22.20
2009,06,27,14,06,22.20
2009,06,27,14,07,22.20
2009,06,27,14,08,22.20
2009,06,27,14,09,22.20
2009,06,27,14,10,22.20
2009,06,27,14,11,22.30
2009,06,27,14,12,22.40
2009,06,27,14,13,22.40
2009,06,27,14,14,22.30
2009,06,27,14,15,22.30
2009,06,27,14,16,22.20
2009,06,27,14,17,22.10
2009,06,27,14,18,22.10
2009,06,27,14,19,22.30
2009,06,27,14,20,22.30
2009,06,27,14,21,22.40
2009,06,27,14,22,22.50
2009,06,27,14,23,22.60
2009,06,27,14,24,22.80
2009,06,27,14,25,22.90
2009,06,27,14,26,23.10
2009,06,27,14,27,23.30
2009,06,27,14,28,23.40
2009,06,27,14,29,23.50
2009,06,27,14,30,23.70
2009,06,27,14,31,23.80
2009,06,27,14,32,23.90
2009,06,27,14,33,23.90
2009,06,27,14,34,23.80
2009,06,27,14,35,23.80
2009,06,27,14,36,23.80
2009,06,27,14,37,23.60
2009,06,27,14,38,23.40
2009,06,27,14,39,23.40
2009,06,27,14,40,23.30
2009,06,27,14,41,23.20
2009,06,27,14,42,23.10
2009,06,27,14,43,22.90
2009,06,27,14,44,22.60
2009,06,27,14,45,22.30
2009,06,27,14,46,22.10
2009,06,27,14,47,22.00
2009,06,27,14,48,22.00
2009,06,27,14,49,22.00
2009,06,27,14,50,22.00
2009,06,27,14,51,21.90
2009,06,27,14,52,21.90
2009,06,27,14,53,22.00
2009,06,27,14,54,22.00
2009,06,27,14,55,22.10
2009,06,27,14,56,22.20
2009,06,27,14,57,22.30
2009,06,27,14,58,22.40
2009,06,27,14,59,22.50
2009,06,27,15,00,22.70
2009,06,27,15,01,22.70
2009,06,27,15,02,22.70
2009,06,27,15,03,22.70
2009,06,27,15,04,22.60
2009,06,27,15,05,22.70
2009,06,27,15,06,22.80
2009,06,27,15,07,22.80
2009,06,27,15,08,22.70
2009,06,27,15,09,22.60
2009,06,27,15,10,22.60
2009,06,27,15,11,22.50
2009,06,27,15,12,22.50
2009,06,27,15,13,22.50
2009,06,27,15,14,22.50
2009,06,27,15,15,22.60
2009,06,27,15,16,22.60
2009,06,27,15,17,22.70
2009,06,27,15,18,22.70
2009,06,27,15,19,22.70
2009,06,27,15,20,22.80
2009,06,27,15,21,22.70
2009,06,27,15,22,22.60
2009,06,27,15,23,22.40
2009,06,27,15,24,22.40
2009,06,27,15,25,22.30
2009,06,27,15,26,22.30
2009,06,27,15,27,22.20
2009,06,27,15,28,22.00
2009,06,27,15,29,21.90
2009,06,27,15,30,22.00
2009,06,27,15,31,22.00
2009,06,27,15,32,22.10
2009,06,27,15,33,22.10
2009,06,27,15,34,22.10
2009,06,27,15,35,22.10
2009,06,27,15,36,22.20
2009,06,27,15,37,22.30
2009,06,27,15,38,22.30
2009,06,27,15,39,22.40
2009,06,27,15,40,22.30
2009,06,27,15,41,22.20
2009,06,27,15,42,22.20
2009,06,27,15,43,22.20
2009,06,27,15,44,22.20
2009,06,27,15,45,22.20
2009,06,27,15,46,22.20
2009,06,27,15,47,22.20
2009,06,27,15,48,22.20
2009,06,27,15,49,22.20
2009,06,27,15,50,22.30
2009,06,27,15,51,22.30
2009,06,27,15,52,22.30
2009,06,27,15,53,22.30
2009,06,27,15,54,22.30
2009,06,27,15,55,22.30
2009,06,27,15,56,22.30
2009,06,27,15,57,22.30
2009,06,27,15,58,22.30
2009,06,27,15,59,22.30
2009,06,27,16,00,22.30
2009,06,27,16,01,22.30
2009,06,27,16,02,22.40
2009,06,27,16,03,22.50
2009,06,27,16,04,22.60
2009,06,27,16,05,22.60
2009,06,27,16,06,22.60
2009,06,27,16,07,22.50
2009,06,27,16,08,22.40
2009,06,27,16,09,22.40
2009,06,27,16,10,22.30
2009,06,27,16,11,22.20
2009,06,27,16,12,22.20
2009,06,27,16,13,22.10
2009,06,27,16,14,22.10
2009,06,27,16,15,22.10
2009,06,27,16,16,22.10
2009,06,27,16,17,22.10
2009,06,27,16,18,22.10
2009,06,27,16,19,22.00
2009,06,27,16,20,22.00
2009,06,27,16,21,22.10
2009,06,27,16,22,22.10
2009,06,27,16,23,22.00
2009,06,27,16,24,21.90
2009,06,27,16,25,21.80
2009,06,27,16,26,21.70
2009,06,27,16,27,21.60
2009,06,27,16,28,21.50
2009,06,27,16,29,21.40
2009,06,27,16,30,21.40
2009,06,27,16,31,21.50
2009,06,27,16,32,21.60
2009,06,27,16,33,21.70
2009,06,27,16,34,21.70
2009,06,27,16,35,21.70
2009,06,27,16,36,21.80
2009,06,27,16,37,21.80
2009,06,27,16,38,21.80
2009,06,27,16,39,21.80
2009,06,27,16,40,21.80
2009,06,27,16,41,21.80
2009,06,27,16,42,21.80
2009,06,27,16,43,21.80
2009,06,27,16,44,21.90
2009,06,27,16,45,21.90
2009,06,27,16,46,21.80
2009,06,27,16,47,21.80
2009,06,27,16,48,21.80
2009,06,27,16,49,21.80
2009,06,27,16,50,21.80
2009,06,27,16,51,21.80
2009,06,27,16,52,21.80
2009,06,27,16,53,21.70
2009,06,27,16,54,21.60
2009,06,27,16,55,21.40
2009,06,27,16,56,21.30
2009,06,27,16,57,21.20
2009,06,27,16,58,21.10
2009,06,27,16,59,21.00
2009,06,27,17,00,21.00
2009,06,27,17,01,21.00
2009,06,27,17,02,20.90
2009,06,27,17,03,20.90
2009,06,27,17,04,20.90
2009,06,27,17,05,20.90
2009,06,27,17,06,20.90
2009,06,27,17,07,20.90
2009,06,27,17,08,20.90
2009,06,27,17,09,20.80
2009,06,27,17,10,20.80
2009,06,27,17,11,20.60
2009,06,27,17,12,20.50
2009,06,27,17,13,20.30
2009,06,27,17,14,20.20
2009,06,27,17,15,20.00
2009,06,27,17,16,20.00
2009,06,27,17,17,20.00
2009,06,27,17,18,19.90
2009,06,27,17,19,19.80
2009,06,27,17,20,19.80
2009,06,27,17,21,19.80
2009,06,27,17,22,19.80
2009,06,27,17,23,19.80
2009,06,27,17,24,19.80
2009,06,27,17,25,19.70
2009,06,27,17,26,19.60
2009,06,27,17,27,19.50
2009,06,27,17,28,19.50
2009,06,27,17,29,19.40
2009,06,27,17,30,19.40
2009,06,27,17,31,19.30
2009,06,27,17,32,19.30
2009,06,27,17,33,19.30
2009,06,27,17,34,19.20
2009,06,27,17,35,19.20
2009,06,27,17,36,19.30
2009,06,27,17,37,19.30
2009,06,27,17,38,19.30
2009,06,27,17,39,19.30
2009,06,27,17,40,19.30
2009,06,27,17,41,19.30
2009,06,27,17,42,19.40
2009,06,27,17,43,19.40
2009,06,27,17,44,19.50
2009,06,27,17,45,19.50
2009,06,27,17,46,19.60
2009,06,27,17,47,19.70
2009,06,27,17,48,19.70
2009,06,27,17,49,19.70
2009,06,27,17,50,19.70
2009,06,27,17,51,19.70
2009,06,27,17,52,19.70
2009,06,27,17,53,19.70
2009,06,27,17,54,19.70
2009,06,27,17,55,19.60
2009,06,27,17,56,19.50
2009,06,27,17,57,19.50
2009,06,27,17,58,19.50
2009,06,27,17,59,19.50
2009,06,27,18,00,19.50
2009,06,27,18,01,19.40
2009,06,27,18,02,19.40
2009,06,27,18,03,19.30
2009,06,27,18,04,19.30
2009,06,27,18,05,19.30
2009,06,27,18,06,19.30
2009,06,27,18,07,19.30
2009,06,27,18,08,19.30
2009,06,27,18,09,19.30
2009,06,27,18,10,19.20
2009,06,27,18,11,19.20
2009,06,27,18,12,19.10
2009,06,27,18,13,19.00
2009,06,27,18,14,19.00
2009,06,27,18,15,18.90
2009,06,27,18,16,18.90
2009,06,27,18,17,18.80
2009,06,27,18,18,18.70
2009,06,27,18,19,18.60
2009,06,27,18,20,18.50
2009,06,27,18,21,18.40
2009,06,27,18,22,18.30
2009,06,27,18,23,18.20
2009,06,27,18,24,18.20
2009,06,27,18,25,18.10
2009,06,27,18,26,18.00
2009,06,27,18,27,18.00
2009,06,27,18,28,18.00
2009,06,27,18,29,17.90